DLH8HP ENTC-EDDF

Flight info

Callsign DLH8HP
Flight time 3h 19m
Altitude 36000
Route AMIMO DCT SOMUB DCT ULMUG DCT AMSEV DCT KUGAL DCT EEL DCT SOGPO/N0437F370 DCT DIXAT DIXAT1A
Aircraft A320/M-SDE2E3FGIJ1LORWXYZ/HB1

Departure

Time 2026-05-05 19:03
Airport Tromsø Airport (ENTC)

Arrival

Time 2026-05-05 22:22
Airport Frankfurt Main Airport (EDDF)
Time Latitude Longitude Altitude Speed Heading
2026-05-05 18:37 69.67897 18.90855 38 ft 0 kts 283°
2026-05-05 18:54 69.67893 18.90904 38 ft 4 kts 282°
2026-05-05 18:54 69.67888 18.90980 36 ft 4 kts 280°
2026-05-05 18:54 69.67884 18.91055 33 ft 4 kts 276°
2026-05-05 18:54 69.67883 18.91132 37 ft 4 kts 264°
2026-05-05 18:55 69.67889 18.91198 35 ft 4 kts 216°
2026-05-05 18:55 69.67895 18.91209 36 ft 0 kts 193°
2026-05-05 18:57 69.67892 18.91207 36 ft 0 kts 193°
2026-05-05 18:57 69.67890 18.91205 36 ft 1 kts 193°
2026-05-05 18:57 69.67874 18.91194 36 ft 4 kts 193°
2026-05-05 18:58 69.67843 18.91174 38 ft 5 kts 193°
2026-05-05 18:58 69.67800 18.91145 39 ft 7 kts 193°
2026-05-05 18:58 69.67750 18.91112 40 ft 8 kts 193°
2026-05-05 18:58 69.67684 18.91067 39 ft 12 kts 193°
2026-05-05 18:59 69.67632 18.91154 42 ft 0 kts 106°
2026-05-05 18:59 69.67632 18.91155 42 ft 0 kts 106°
2026-05-05 19:01 69.67629 18.91192 40 ft 4 kts 106°
2026-05-05 19:01 69.67613 18.91340 40 ft 9 kts 112°
2026-05-05 19:01 69.67596 18.91404 40 ft 1 kts 74°
2026-05-05 19:01 69.67603 18.91402 39 ft 0 kts
2026-05-05 19:02 69.67613 18.91410 40 ft 4 kts 14°
2026-05-05 19:02 69.67800 18.91533 40 ft 67 kts 13°
2026-05-05 19:02 69.68513 18.92011 27 ft 139 kts 13°
2026-05-05 19:02 69.69581 18.92635 447 ft 163 kts 11°
2026-05-05 19:03 69.70736 18.93403 1113 ft 178 kts 15°
2026-05-05 19:03 69.71961 18.94217 1820 ft 183 kts 13°
2026-05-05 19:03 69.73243 18.95065 2198 ft 199 kts 15°
2026-05-05 19:03 69.74649 18.96039 2514 ft 219 kts 15°
2026-05-05 19:04 69.76172 18.97095 3169 ft 228 kts 14°
2026-05-05 19:04 69.77764 18.97160 3936 ft 237 kts 343°
2026-05-05 19:04 69.79090 18.94318 4736 ft 247 kts 305°
2026-05-05 19:04 69.79770 18.89717 5573 ft 252 kts 285°
2026-05-05 19:05 69.80120 18.84737 6425 ft 254 kts 281°
2026-05-05 19:05 69.80380 18.79673 7301 ft 255 kts 279°
2026-05-05 19:05 69.80621 18.74657 8120 ft 257 kts 274°
2026-05-05 19:05 69.80406 18.69516 8908 ft 262 kts 252°
2026-05-05 19:06 69.79572 18.64769 9566 ft 274 kts 233°
2026-05-05 19:06 69.78116 18.61022 9992 ft 290 kts 212°
2026-05-05 19:06 69.76298 18.57975 10191 ft 314 kts 210°
2026-05-05 19:06 69.74341 18.54802 10632 ft 328 kts 210°
2026-05-05 19:07 69.72339 18.51593 11358 ft 331 kts 211°
2026-05-05 19:07 69.70349 18.48415 12150 ft 332 kts 210°
2026-05-05 19:07 69.68340 18.45196 12923 ft 334 kts 211°
2026-05-05 19:07 69.66307 18.41934 13644 ft 336 kts 211°
2026-05-05 19:08 69.64257 18.38648 14274 ft 338 kts 211°
2026-05-05 19:08 69.62193 18.35341 14913 ft 341 kts 211°
2026-05-05 19:08 69.60113 18.32014 15559 ft 344 kts 211°
2026-05-05 19:08 69.58018 18.28667 16191 ft 347 kts 211°
2026-05-05 19:09 69.55905 18.25300 16814 ft 349 kts 211°
2026-05-05 19:09 69.53770 18.21906 17445 ft 352 kts 211°
2026-05-05 19:09 69.51619 18.18493 18034 ft 355 kts 211°
2026-05-05 19:09 69.49481 18.15105 18537 ft 358 kts 211°
2026-05-05 19:10 69.47292 18.11649 19038 ft 361 kts 210°
2026-05-05 19:10 69.45082 18.08178 19518 ft 365 kts 210°
2026-05-05 19:10 69.42843 18.04685 20016 ft 368 kts 210°
2026-05-05 19:10 69.40583 18.01166 20510 ft 372 kts 210°
2026-05-05 19:11 69.38309 17.97618 20974 ft 375 kts 210°
2026-05-05 19:11 69.36029 17.93965 21434 ft 378 kts 211°
2026-05-05 19:11 69.33747 17.90217 21890 ft 381 kts 211°
2026-05-05 19:11 69.31445 17.86410 22346 ft 384 kts 211°
2026-05-05 19:12 69.29160 17.82639 22787 ft 387 kts 211°
2026-05-05 19:12 69.26824 17.78796 23242 ft 390 kts 211°
2026-05-05 19:12 69.24469 17.74952 23620 ft 392 kts 211°
2026-05-05 19:12 69.22093 17.71103 23983 ft 395 kts 211°
2026-05-05 19:13 69.19696 17.67244 24347 ft 398 kts 211°
2026-05-05 19:13 69.17288 17.63375 24688 ft 401 kts 211°
2026-05-05 19:13 69.14854 17.59475 25042 ft 403 kts 211°
2026-05-05 19:13 69.12443 17.55616 25373 ft 406 kts 211°
2026-05-05 19:14 69.09981 17.51675 25708 ft 409 kts 211°
2026-05-05 19:14 69.07512 17.47727 26042 ft 411 kts 211°
2026-05-05 19:14 69.05016 17.43749 26376 ft 414 kts 210°
2026-05-05 19:14 69.02501 17.39760 26699 ft 416 kts 210°
2026-05-05 19:15 68.99972 17.35770 27019 ft 419 kts 210°
2026-05-05 19:15 68.97426 17.31773 27335 ft 422 kts 210°
2026-05-05 19:15 68.94864 17.27760 27677 ft 424 kts 210°
2026-05-05 19:15 68.92284 17.23723 27987 ft 427 kts 210°
2026-05-05 19:16 68.89689 17.19670 28293 ft 429 kts 210°
2026-05-05 19:16 68.87081 17.15601 28585 ft 432 kts 210°
2026-05-05 19:16 68.84485 17.11558 28874 ft 435 kts 210°
2026-05-05 19:16 68.81838 17.07452 29167 ft 438 kts 210°
2026-05-05 19:17 68.79175 17.03335 29454 ft 440 kts 210°
2026-05-05 19:17 68.76478 16.99275 29728 ft 443 kts 206°
2026-05-05 19:17 68.73609 16.96142 29941 ft 446 kts 197°
2026-05-05 19:17 68.70585 16.94089 30152 ft 448 kts 193°
2026-05-05 19:18 68.67539 16.92204 30367 ft 450 kts 193°
2026-05-05 19:18 68.64474 16.90312 30586 ft 452 kts 193°
2026-05-05 19:18 68.61404 16.88419 30835 ft 453 kts 193°
2026-05-05 19:18 68.58375 16.86551 31169 ft 452 kts 193°
2026-05-05 19:19 68.55306 16.84660 31481 ft 452 kts 193°
2026-05-05 19:19 68.52244 16.82777 31793 ft 451 kts 193°
2026-05-05 19:19 68.49179 16.80894 32092 ft 451 kts 193°
2026-05-05 19:19 68.46116 16.79025 32399 ft 451 kts 193°
2026-05-05 19:20 68.43058 16.77167 32696 ft 450 kts 193°
2026-05-05 19:20 68.40004 16.75309 32992 ft 450 kts 193°
2026-05-05 19:20 68.36948 16.73454 33293 ft 450 kts 193°
2026-05-05 19:20 68.33889 16.71606 33589 ft 450 kts 193°
2026-05-05 19:21 68.30880 16.69792 33839 ft 450 kts 193°
2026-05-05 19:21 68.27827 16.67946 34071 ft 450 kts 193°
2026-05-05 19:21 68.24774 16.66103 34299 ft 449 kts 193°
2026-05-05 19:21 68.21725 16.64277 34528 ft 449 kts 193°
2026-05-05 19:22 68.18668 16.62457 34745 ft 449 kts 193°
2026-05-05 19:22 68.15618 16.60640 34965 ft 449 kts 193°
2026-05-05 19:22 68.12568 16.58830 35176 ft 449 kts 193°
2026-05-05 19:22 68.09560 16.57053 35383 ft 449 kts 193°
2026-05-05 19:23 68.06508 16.55253 35582 ft 449 kts 193°
2026-05-05 19:23 68.03462 16.53460 35670 ft 448 kts 193°
2026-05-05 19:23 67.97401 16.49908 35690 ft 445 kts 194°
2026-05-05 19:24 67.91359 16.46378 35696 ft 444 kts 193°
2026-05-05 19:24 67.85467 16.41659 35697 ft 442 kts 206°
2026-05-05 19:25 67.79942 16.34796 35689 ft 442 kts 206°
2026-05-05 19:25 67.74365 16.27934 35695 ft 442 kts 206°
2026-05-05 19:26 67.68789 16.21116 35691 ft 442 kts 206°
2026-05-05 19:26 67.63207 16.14316 35708 ft 442 kts 206°
2026-05-05 19:27 67.57658 16.07609 35712 ft 442 kts 206°
2026-05-05 19:27 67.52066 16.00886 35721 ft 442 kts 206°
2026-05-05 19:28 67.46479 15.94206 35712 ft 442 kts 206°
2026-05-05 19:28 67.40888 15.87536 35705 ft 442 kts 206°
2026-05-05 19:29 67.35338 15.80941 35712 ft 442 kts 206°
2026-05-05 19:29 67.29745 15.74347 35713 ft 442 kts 206°
2026-05-05 19:30 67.24143 15.67786 35707 ft 442 kts 206°
2026-05-05 19:30 67.18538 15.61253 35711 ft 442 kts 206°
2026-05-05 19:31 67.12929 15.54764 35707 ft 442 kts 205°
2026-05-05 19:31 67.07353 15.48330 35708 ft 442 kts 205°
2026-05-05 19:32 67.01744 15.41866 35705 ft 442 kts 205°
2026-05-05 19:32 66.96133 15.35422 35697 ft 442 kts 205°
2026-05-05 19:33 66.90521 15.29038 35697 ft 442 kts 205°
2026-05-05 19:33 66.84934 15.22730 35706 ft 442 kts 205°
2026-05-05 19:34 66.79310 15.16395 35703 ft 442 kts 205°
2026-05-05 19:35 66.70861 15.06926 35702 ft 443 kts 205°
2026-05-05 19:35 66.65227 15.00658 35710 ft 443 kts 205°
2026-05-05 19:36 66.59621 14.94480 35714 ft 443 kts 205°
2026-05-05 19:36 66.53974 14.88277 35724 ft 443 kts 205°
2026-05-05 19:37 66.48323 14.82071 35717 ft 443 kts 205°
2026-05-05 19:37 66.42678 14.75900 35727 ft 443 kts 205°
2026-05-05 19:38 66.37075 14.69813 35732 ft 442 kts 205°
2026-05-05 19:38 66.31429 14.63720 35732 ft 442 kts 205°
2026-05-05 19:39 66.25778 14.57654 35732 ft 442 kts 205°
2026-05-05 19:39 66.20132 14.51637 35718 ft 442 kts 205°
2026-05-05 19:40 66.14522 14.45657 35721 ft 442 kts 205°
2026-05-05 19:40 66.08879 14.39674 35722 ft 441 kts 205°
2026-05-05 19:41 66.03231 14.33707 35721 ft 441 kts 205°
2026-05-05 19:41 65.97585 14.27784 35721 ft 441 kts 205°
2026-05-05 19:42 65.91931 14.21886 35732 ft 441 kts 205°
2026-05-05 19:42 65.86312 14.16065 35722 ft 441 kts 205°
2026-05-05 19:43 65.80655 14.10239 35738 ft 442 kts 205°
2026-05-05 19:43 65.74994 14.04415 35741 ft 441 kts 205°
2026-05-05 19:44 65.69340 13.98598 35745 ft 441 kts 205°
2026-05-05 19:44 65.63718 13.92854 35744 ft 441 kts 205°
2026-05-05 19:45 65.58063 13.87133 35740 ft 441 kts 205°
2026-05-05 19:45 65.52401 13.81443 35751 ft 440 kts 205°
2026-05-05 19:46 65.46750 13.75759 35765 ft 440 kts 205°
2026-05-05 19:46 65.41137 13.70136 35766 ft 440 kts 205°
2026-05-05 19:47 65.35491 13.64517 35778 ft 440 kts 205°
2026-05-05 19:47 65.29835 13.58924 35759 ft 439 kts 205°
2026-05-05 19:48 65.24189 13.53341 35778 ft 439 kts 205°
2026-05-05 19:48 65.18581 13.47832 35781 ft 439 kts 205°
2026-05-05 19:49 65.12933 13.42314 35792 ft 439 kts 205°
2026-05-05 19:49 65.07284 13.36833 35793 ft 438 kts 205°
2026-05-05 19:50 65.01636 13.31371 35786 ft 439 kts 205°
2026-05-05 19:50 64.95992 13.25926 35794 ft 438 kts 205°
2026-05-05 19:51 64.90383 13.20547 35805 ft 438 kts 205°
2026-05-05 19:51 64.84736 13.15158 35815 ft 438 kts 205°
2026-05-05 19:52 64.79083 13.09776 35819 ft 438 kts 204°
2026-05-05 19:52 64.73471 13.04466 35835 ft 438 kts 204°
2026-05-05 19:53 64.67812 12.99139 35815 ft 438 kts 204°
2026-05-05 19:53 64.62155 12.93837 35838 ft 438 kts 204°
2026-05-05 19:54 64.56499 12.88565 35838 ft 438 kts 204°
2026-05-05 19:54 64.50832 12.83310 35851 ft 438 kts 204°
2026-05-05 19:55 64.45211 12.78112 35850 ft 438 kts 204°
2026-05-05 19:55 64.39547 12.72888 35837 ft 438 kts 205°
2026-05-05 19:56 64.33885 12.67683 35864 ft 438 kts 204°
2026-05-05 19:56 64.28222 12.62518 35901 ft 438 kts 204°
2026-05-05 19:57 64.22557 12.57380 35933 ft 438 kts 204°
2026-05-05 19:57 64.16932 12.52286 35962 ft 437 kts 204°
2026-05-05 19:58 64.11269 12.47169 35982 ft 438 kts 204°
2026-05-05 19:58 64.05603 12.42087 35990 ft 437 kts 204°
2026-05-05 19:59 63.99931 12.37025 35983 ft 437 kts 204°
2026-05-05 19:59 63.97098 12.34513 35878 ft 438 kts 204°
2026-05-05 19:59 63.94296 12.32031 35889 ft 438 kts 204°
2026-05-05 20:00 63.88626 12.27013 35887 ft 437 kts 204°
2026-05-05 20:00 63.82958 12.21998 35877 ft 437 kts 204°
2026-05-05 20:01 63.77289 12.17012 35898 ft 437 kts 204°
2026-05-05 20:01 63.71620 12.12066 35911 ft 437 kts 204°
2026-05-05 20:02 63.65986 12.07173 35907 ft 436 kts 204°
2026-05-05 20:02 63.60321 12.02263 35922 ft 436 kts 204°
2026-05-05 20:03 63.54654 11.97361 35895 ft 436 kts 205°
2026-05-05 20:03 63.48987 11.92497 35918 ft 436 kts 204°
2026-05-05 20:04 63.43370 11.87697 35925 ft 435 kts 204°
2026-05-05 20:04 63.37713 11.82886 35929 ft 435 kts 204°
2026-05-05 20:05 63.31953 11.78669 35936 ft 437 kts 199°
2026-05-05 20:05 63.26099 11.75072 35936 ft 437 kts 199°
2026-05-05 20:06 63.20271 11.71518 35928 ft 437 kts 199°
2026-05-05 20:06 63.14413 11.67967 35934 ft 436 kts 199°
2026-05-05 20:07 63.08561 11.64430 35941 ft 436 kts 199°
2026-05-05 20:07 63.02710 11.60889 35943 ft 436 kts 199°
2026-05-05 20:08 62.96861 11.57355 35952 ft 436 kts 199°
2026-05-05 20:08 62.91050 11.53875 35926 ft 435 kts 199°
2026-05-05 20:09 62.85210 11.50401 35912 ft 435 kts 199°
2026-05-05 20:09 62.79361 11.46928 35892 ft 435 kts 199°
2026-05-05 20:10 62.73521 11.43458 35873 ft 435 kts 199°
2026-05-05 20:10 62.67722 11.40031 35848 ft 435 kts 199°
2026-05-05 20:11 62.61885 11.36618 35827 ft 434 kts 200°
2026-05-05 20:11 62.56048 11.33236 35943 ft 434 kts 200°
2026-05-05 20:12 62.50219 11.29847 35949 ft 434 kts 200°
2026-05-05 20:12 62.44396 11.26455 35949 ft 433 kts 200°
2026-05-05 20:13 62.38614 11.23111 35949 ft 433 kts 200°
2026-05-05 20:13 62.32792 11.19756 35927 ft 433 kts 200°
2026-05-05 20:14 62.26977 11.16423 35936 ft 433 kts 200°
2026-05-05 20:14 62.21159 11.13109 35942 ft 432 kts 200°
2026-05-05 20:15 62.15384 11.09842 35945 ft 432 kts 200°
2026-05-05 20:15 62.09564 11.06556 35947 ft 432 kts 200°
2026-05-05 20:16 62.03752 11.03278 35913 ft 432 kts 200°
2026-05-05 20:16 61.97944 11.00007 35927 ft 432 kts 200°
2026-05-05 20:17 61.92176 10.96779 35927 ft 431 kts 200°
2026-05-05 20:17 61.86370 10.93551 35932 ft 432 kts 200°
2026-05-05 20:18 61.80561 10.90333 35931 ft 431 kts 200°
2026-05-05 20:18 61.74755 10.87124 35913 ft 431 kts 200°
2026-05-05 20:19 61.68993 10.83941 35924 ft 431 kts 200°
2026-05-05 20:19 61.63196 10.80769 35929 ft 431 kts 200°
2026-05-05 20:20 61.57395 10.77602 35935 ft 431 kts 200°
2026-05-05 20:20 61.51595 10.74444 35937 ft 431 kts 200°
2026-05-05 20:21 61.45795 10.71308 35906 ft 430 kts 201°
2026-05-05 20:21 61.40041 10.68201 35927 ft 430 kts 201°
2026-05-05 20:22 61.34259 10.65078 35936 ft 429 kts 201°
2026-05-05 20:22 61.28469 10.61973 35934 ft 429 kts 201°
2026-05-05 20:23 61.22681 10.58886 35937 ft 429 kts 201°
2026-05-05 20:23 61.16938 10.55828 35945 ft 429 kts 201°
2026-05-05 20:24 61.11151 10.52776 35934 ft 429 kts 201°
2026-05-05 20:24 61.05368 10.49721 35933 ft 429 kts 201°
2026-05-05 20:25 60.99586 10.46671 35931 ft 429 kts 201°
2026-05-05 20:25 60.93842 10.43666 35931 ft 429 kts 201°
2026-05-05 20:26 60.88052 10.40653 35906 ft 429 kts 201°
2026-05-05 20:26 60.82272 10.37646 35921 ft 429 kts 201°
2026-05-05 20:27 60.76493 10.34646 35922 ft 428 kts 201°
2026-05-05 20:27 60.70711 10.31668 35926 ft 429 kts 201°
2026-05-05 20:28 60.64969 10.28719 35927 ft 428 kts 201°
2026-05-05 20:28 60.59147 10.25741 35933 ft 436 kts 201°
2026-05-05 20:29 60.53193 10.22681 35935 ft 446 kts 201°
2026-05-05 20:29 60.47153 10.19594 35930 ft 449 kts 201°
2026-05-05 20:30 60.41126 10.16561 35931 ft 449 kts 201°
2026-05-05 20:30 60.35062 10.13511 35902 ft 447 kts 201°
2026-05-05 20:31 60.29040 10.10505 35942 ft 445 kts 201°
2026-05-05 20:31 60.24056 10.08009 35946 ft 444 kts 201°
2026-05-05 20:32 60.18062 10.04999 35945 ft 444 kts 201°
2026-05-05 20:32 60.11097 10.01544 35959 ft 444 kts 201°
2026-05-05 20:33 60.06113 9.99079 35924 ft 443 kts 201°
2026-05-05 20:33 60.00136 9.96120 35945 ft 442 kts 201°
2026-05-05 20:34 59.94173 9.93182 35954 ft 441 kts 201°
2026-05-05 20:34 59.88220 9.90269 35955 ft 440 kts 201°
2026-05-05 20:35 59.82269 9.87367 35954 ft 440 kts 201°
2026-05-05 20:35 59.76366 9.84499 35923 ft 439 kts 201°
2026-05-05 20:36 59.70442 9.81621 35935 ft 438 kts 201°
2026-05-05 20:36 59.64522 9.78766 35950 ft 438 kts 201°
2026-05-05 20:37 59.58609 9.75927 35955 ft 437 kts 201°
2026-05-05 20:37 59.52736 9.73111 35947 ft 437 kts 201°
2026-05-05 20:38 59.46824 9.70286 35926 ft 437 kts 201°
2026-05-05 20:38 59.40922 9.67479 35937 ft 436 kts 201°
2026-05-05 20:39 59.35015 9.64677 35947 ft 436 kts 201°
2026-05-05 20:39 59.29151 9.61921 35951 ft 436 kts 201°
2026-05-05 20:40 59.23253 9.59140 35914 ft 436 kts 200°
2026-05-05 20:40 59.17359 9.56348 35933 ft 435 kts 201°
2026-05-05 20:41 59.11517 9.53306 35941 ft 434 kts 202°
2026-05-05 20:41 59.05743 9.50166 35947 ft 434 kts 202°
2026-05-05 20:42 58.99921 9.47054 35949 ft 434 kts 202°
2026-05-05 20:42 58.94096 9.43997 35929 ft 434 kts 202°
2026-05-05 20:43 58.88270 9.40966 35948 ft 434 kts 202°
2026-05-05 20:43 58.82435 9.37942 35958 ft 433 kts 202°
2026-05-05 20:44 58.76655 9.34931 35957 ft 433 kts 202°
2026-05-05 20:44 58.70829 9.31919 35958 ft 433 kts 202°
2026-05-05 20:45 58.62102 9.27433 35938 ft 433 kts 201°
2026-05-05 20:45 58.56315 9.24472 35948 ft 433 kts 201°
2026-05-05 20:46 58.50499 9.21521 35952 ft 433 kts 201°
2026-05-05 20:46 58.44868 9.18654 35955 ft 433 kts 201°
2026-05-05 20:47 58.39176 9.15754 35958 ft 433 kts 201°
2026-05-05 20:47 58.33398 9.12820 35959 ft 433 kts 201°
2026-05-05 20:48 58.27585 9.09895 35961 ft 433 kts 201°
2026-05-05 20:48 58.21763 9.06981 35960 ft 433 kts 201°
2026-05-05 20:49 58.15943 9.04066 35958 ft 433 kts 201°
2026-05-05 20:49 58.10163 9.01193 35930 ft 432 kts 201°
2026-05-05 20:50 58.04345 8.98306 35947 ft 432 kts 201°
2026-05-05 20:50 57.99505 8.95900 35952 ft 432 kts 201°
2026-05-05 20:51 57.93690 8.93025 35954 ft 432 kts 201°
2026-05-05 20:51 57.87876 8.90166 35922 ft 432 kts 201°
2026-05-05 20:52 57.82109 8.87348 35943 ft 431 kts 201°
2026-05-05 20:52 57.76303 8.84509 35948 ft 431 kts 201°
2026-05-05 20:53 57.70504 8.81674 35962 ft 431 kts 201°
2026-05-05 20:53 57.64700 8.78869 35963 ft 431 kts 200°
2026-05-05 20:54 57.58921 8.76141 35929 ft 431 kts 200°
2026-05-05 20:54 57.53114 8.73402 35945 ft 431 kts 200°
2026-05-05 20:55 57.47305 8.70673 35959 ft 431 kts 200°
2026-05-05 20:55 57.41495 8.67949 35964 ft 430 kts 200°
2026-05-05 20:56 57.35727 8.65251 35968 ft 430 kts 200°
2026-05-05 20:56 57.29918 8.62551 35953 ft 430 kts 200°
2026-05-05 20:57 57.24113 8.59869 35958 ft 430 kts 200°
2026-05-05 20:57 57.18309 8.57181 35977 ft 430 kts 200°
2026-05-05 20:58 57.12544 8.54519 35977 ft 430 kts 200°
2026-05-05 20:58 57.06746 8.51849 35950 ft 430 kts 199°
2026-05-05 20:59 57.00944 8.49184 35969 ft 430 kts 199°
2026-05-05 20:59 56.95141 8.46540 35980 ft 430 kts 199°
2026-05-05 21:00 56.89336 8.43900 35985 ft 430 kts 199°
2026-05-05 21:00 56.83581 8.41279 35991 ft 429 kts 199°
2026-05-05 21:01 56.77777 8.38653 35961 ft 430 kts 199°
2026-05-05 21:01 56.71973 8.36037 35973 ft 430 kts 199°
2026-05-05 21:02 56.66168 8.33426 35983 ft 430 kts 199°
2026-05-05 21:02 56.60359 8.30828 35988 ft 430 kts 199°
2026-05-05 21:03 56.54589 8.28248 35964 ft 430 kts 199°
2026-05-05 21:03 56.48781 8.25670 35975 ft 430 kts 199°
2026-05-05 21:04 56.42965 8.23089 35982 ft 430 kts 199°
2026-05-05 21:04 56.37155 8.20512 35987 ft 430 kts 199°
2026-05-05 21:05 56.31376 8.17959 35991 ft 430 kts 198°
2026-05-05 21:05 56.25560 8.15405 35966 ft 430 kts 198°
2026-05-05 21:06 56.19741 8.12859 35975 ft 431 kts 198°
2026-05-05 21:06 56.13911 8.10306 35979 ft 431 kts 198°
2026-05-05 21:07 56.08087 8.07768 35980 ft 431 kts 198°
2026-05-05 21:07 56.02302 8.05249 35961 ft 431 kts 198°
2026-05-05 21:08 55.96466 8.02716 35968 ft 431 kts 197°
2026-05-05 21:08 55.90632 8.00191 35978 ft 431 kts 197°
2026-05-05 21:09 55.84795 7.97673 35980 ft 432 kts 197°
2026-05-05 21:09 55.79025 7.95203 35981 ft 432 kts 197°
2026-05-05 21:10 55.73180 7.92724 35981 ft 432 kts 197°
2026-05-05 21:10 55.67337 7.90234 35982 ft 432 kts 197°
2026-05-05 21:11 55.61497 7.87738 35984 ft 432 kts 197°
2026-05-05 21:11 55.55696 7.85267 35983 ft 432 kts 197°
2026-05-05 21:12 55.49855 7.82804 35968 ft 431 kts 197°
2026-05-05 21:12 55.44021 7.80362 35986 ft 431 kts 197°
2026-05-05 21:13 55.38197 7.77915 35986 ft 430 kts 197°
2026-05-05 21:13 55.32416 7.75496 35981 ft 430 kts 197°
2026-05-05 21:14 55.26593 7.73076 35951 ft 430 kts 197°
2026-05-05 21:14 55.20780 7.70654 35968 ft 429 kts 197°
2026-05-05 21:15 55.14969 7.68231 35978 ft 429 kts 197°
2026-05-05 21:15 55.09202 7.65842 35975 ft 429 kts 197°
2026-05-05 21:16 55.03399 7.63463 35976 ft 428 kts 197°
2026-05-05 21:16 54.97621 7.60991 35976 ft 426 kts 199°
2026-05-05 21:17 54.91982 7.57946 35977 ft 424 kts 202°
2026-05-05 21:17 54.86429 7.54753 35981 ft 423 kts 201°
2026-05-05 21:18 54.80823 7.51639 35971 ft 423 kts 201°
2026-05-05 21:18 54.75204 7.48633 35957 ft 422 kts 200°
2026-05-05 21:19 54.69593 7.45653 35962 ft 421 kts 200°
2026-05-05 21:19 54.64035 7.42688 35973 ft 421 kts 201°
2026-05-05 21:20 54.58446 7.39698 35964 ft 420 kts 201°
2026-05-05 21:20 54.52862 7.36723 35961 ft 420 kts 201°
2026-05-05 21:21 54.47276 7.33752 35947 ft 420 kts 200°
2026-05-05 21:21 54.41691 7.30798 35948 ft 420 kts 200°
2026-05-05 21:22 54.36141 7.27875 35943 ft 420 kts 200°
2026-05-05 21:22 54.30549 7.24949 35945 ft 420 kts 200°
2026-05-05 21:23 54.24960 7.22012 35931 ft 420 kts 200°
2026-05-05 21:23 54.19377 7.19077 35935 ft 420 kts 200°
2026-05-05 21:24 54.13799 7.16162 35948 ft 419 kts 200°
2026-05-05 21:24 54.08249 7.13290 35946 ft 419 kts 200°
2026-05-05 21:25 54.02666 7.10394 35920 ft 419 kts 199°
2026-05-05 21:25 53.97087 7.07512 35927 ft 419 kts 199°
2026-05-05 21:26 53.91502 7.04641 35929 ft 419 kts 199°
2026-05-05 21:26 53.85924 7.01770 35932 ft 419 kts 199°
2026-05-05 21:27 53.80380 6.98918 35935 ft 419 kts 199°
2026-05-05 21:27 53.74798 6.96060 35924 ft 419 kts 198°
2026-05-05 21:28 53.69203 6.93220 35920 ft 420 kts 198°
2026-05-05 21:28 53.63641 6.90399 35920 ft 420 kts 198°
2026-05-05 21:29 53.58041 6.87562 35925 ft 420 kts 198°
2026-05-05 21:29 53.52441 6.84724 35908 ft 421 kts 198°
2026-05-05 21:30 53.46830 6.81885 35915 ft 422 kts 198°
2026-05-05 21:30 53.41207 6.79054 35912 ft 422 kts 198°
2026-05-05 21:31 53.35614 6.76254 35908 ft 423 kts 198°
2026-05-05 21:31 53.29976 6.73441 35909 ft 423 kts 198°
2026-05-05 21:32 53.24338 6.70626 35908 ft 423 kts 198°
2026-05-05 21:32 53.18694 6.67818 35911 ft 423 kts 198°
2026-05-05 21:33 53.13011 6.65236 35913 ft 424 kts 194°
2026-05-05 21:33 53.07275 6.63246 35915 ft 424 kts 192°
2026-05-05 21:34 53.01481 6.61374 35907 ft 424 kts 192°
2026-05-05 21:34 52.95695 6.59397 35915 ft 425 kts 193°
2026-05-05 21:35 52.89911 6.57355 35913 ft 425 kts 193°
2026-05-05 21:35 52.84162 6.55321 35917 ft 425 kts 193°
2026-05-05 21:36 52.78372 6.53294 35906 ft 426 kts 193°
2026-05-05 21:36 52.72570 6.51273 35900 ft 426 kts 193°
2026-05-05 21:37 52.66761 6.49253 35900 ft 427 kts 193°
2026-05-05 21:37 52.60987 6.47250 35900 ft 427 kts 193°
2026-05-05 21:38 52.55175 6.45243 35883 ft 427 kts 192°
2026-05-05 21:38 52.49352 6.43229 35879 ft 428 kts 192°
2026-05-05 21:39 52.43511 6.41229 35886 ft 428 kts 192°
2026-05-05 21:39 52.37715 6.39249 35881 ft 429 kts 192°
2026-05-05 21:40 52.31873 6.37259 35877 ft 429 kts 192°
2026-05-05 21:40 52.26026 6.35266 35874 ft 429 kts 192°
2026-05-05 21:41 52.20179 6.33267 35873 ft 429 kts 192°
2026-05-05 21:41 52.14330 6.31279 35878 ft 430 kts 192°
2026-05-05 21:42 52.08511 6.29300 35868 ft 430 kts 191°
2026-05-05 21:42 52.02652 6.27351 35872 ft 430 kts 189°
2026-05-05 21:43 51.99675 6.27001 35871 ft 430 kts 178°
2026-05-05 21:43 51.96712 6.27689 35867 ft 431 kts 166°
2026-05-05 21:43 51.93906 6.29401 35865 ft 433 kts 154°
2026-05-05 21:43 51.91375 6.32068 35859 ft 436 kts 143°
2026-05-05 21:44 51.86650 6.38261 35860 ft 437 kts 143°
2026-05-05 21:44 51.81957 6.44375 35869 ft 436 kts 143°
2026-05-05 21:45 51.77231 6.50514 35874 ft 435 kts 143°
2026-05-05 21:45 51.72509 6.56635 35876 ft 435 kts 143°
2026-05-05 21:46 51.67793 6.62728 35869 ft 435 kts 143°
2026-05-05 21:46 51.63070 6.68811 35869 ft 435 kts 143°
2026-05-05 21:47 51.58381 6.74849 35865 ft 435 kts 143°
2026-05-05 21:47 51.53663 6.80905 35852 ft 434 kts 143°
2026-05-05 21:48 51.51293 6.83933 35338 ft 439 kts 143°
2026-05-05 21:48 51.48889 6.86998 34644 ft 438 kts 143°
2026-05-05 21:48 51.46545 6.89988 34456 ft 424 kts 143°
2026-05-05 21:48 51.44268 6.92898 34084 ft 415 kts 143°
2026-05-05 21:49 51.42024 6.95761 33646 ft 408 kts 142°
2026-05-05 21:49 51.39819 6.98567 33087 ft 403 kts 142°
2026-05-05 21:49 51.37629 7.01344 32489 ft 399 kts 142°
2026-05-05 21:49 51.35489 7.04055 31894 ft 397 kts 142°
2026-05-05 21:50 51.33328 7.06793 31294 ft 395 kts 142°
2026-05-05 21:50 51.31183 7.09508 30703 ft 392 kts 142°
2026-05-05 21:50 51.29044 7.12207 30099 ft 391 kts 142°
2026-05-05 21:50 51.26893 7.14801 29626 ft 385 kts 147°
2026-05-05 21:51 51.24554 7.16829 29155 ft 379 kts 153°
2026-05-05 21:51 51.22212 7.18677 28725 ft 373 kts 153°
2026-05-05 21:51 51.19903 7.20508 28297 ft 367 kts 153°
2026-05-05 21:51 51.17667 7.22284 27884 ft 362 kts 153°
2026-05-05 21:52 51.13221 7.25804 27037 ft 352 kts 153°
2026-05-05 21:52 51.11041 7.27533 26617 ft 348 kts 153°
2026-05-05 21:52 51.08890 7.29280 26183 ft 346 kts 152°
2026-05-05 21:53 51.06766 7.31035 25762 ft 343 kts 152°
2026-05-05 21:53 51.04653 7.32790 25315 ft 341 kts 152°
2026-05-05 21:53 51.02554 7.34533 24872 ft 340 kts 152°
2026-05-05 21:53 51.00459 7.36270 24421 ft 339 kts 152°
2026-05-05 21:54 50.98450 7.38099 24136 ft 333 kts 143°
2026-05-05 21:54 50.96801 7.40556 24065 ft 320 kts 135°
2026-05-05 21:54 50.95251 7.43075 24012 ft 320 kts 135°
2026-05-05 21:54 50.93694 7.45610 23936 ft 321 kts 135°
2026-05-05 21:55 50.92137 7.48150 23866 ft 321 kts 135°
2026-05-05 21:55 50.90581 7.50700 23796 ft 321 kts 135°
2026-05-05 21:55 50.89029 7.53250 23728 ft 321 kts 135°
2026-05-05 21:55 50.87479 7.55789 23658 ft 320 kts 135°
2026-05-05 21:56 50.85935 7.58313 23588 ft 319 kts 135°
2026-05-05 21:56 50.84389 7.60834 23520 ft 319 kts 135°
2026-05-05 21:56 50.82844 7.63352 23455 ft 319 kts 135°
2026-05-05 21:56 50.81316 7.65834 23384 ft 319 kts 135°
2026-05-05 21:57 50.79774 7.68341 23310 ft 319 kts 135°
2026-05-05 21:57 50.78230 7.70853 23231 ft 318 kts 135°
2026-05-05 21:57 50.76686 7.73362 23150 ft 318 kts 135°
2026-05-05 21:57 50.75145 7.75863 23071 ft 318 kts 135°
2026-05-05 21:58 50.73604 7.78365 22994 ft 318 kts 135°
2026-05-05 21:58 50.72063 7.80866 22917 ft 317 kts 135°
2026-05-05 21:58 50.70524 7.83359 22838 ft 317 kts 136°
2026-05-05 21:58 50.69001 7.85813 22761 ft 317 kts 136°
2026-05-05 21:59 50.67464 7.88289 22686 ft 316 kts 136°
2026-05-05 21:59 50.65927 7.90769 22607 ft 316 kts 136°
2026-05-05 21:59 50.64391 7.93244 22531 ft 316 kts 136°
2026-05-05 21:59 50.62855 7.95716 22443 ft 314 kts 136°
2026-05-05 22:00 50.61332 7.98163 22388 ft 313 kts 136°
2026-05-05 22:00 50.59807 8.00608 22319 ft 312 kts 136°
2026-05-05 22:00 50.58293 8.03032 22243 ft 310 kts 136°
2026-05-05 22:00 50.56782 8.05453 22169 ft 310 kts 136°
2026-05-05 22:01 50.55274 8.07869 22098 ft 310 kts 136°
2026-05-05 22:01 50.53785 8.10254 22025 ft 310 kts 136°
2026-05-05 22:01 50.52274 8.12671 21952 ft 310 kts 136°
2026-05-05 22:01 50.50760 8.15083 21879 ft 309 kts 136°
2026-05-05 22:02 50.49252 8.17485 21824 ft 309 kts 136°
2026-05-05 22:02 50.47737 8.19902 21736 ft 309 kts 136°
2026-05-05 22:02 50.46236 8.22295 21661 ft 309 kts 136°
2026-05-05 22:02 50.44729 8.24700 21593 ft 309 kts 136°
2026-05-05 22:03 50.43224 8.27096 21517 ft 308 kts 136°
2026-05-05 22:03 50.41736 8.29461 21448 ft 308 kts 136°
2026-05-05 22:03 50.40228 8.31852 21376 ft 308 kts 136°
2026-05-05 22:03 50.38723 8.34232 21299 ft 308 kts 136°
2026-05-05 22:04 50.37218 8.36613 21221 ft 307 kts 136°
2026-05-05 22:04 50.35716 8.38986 21158 ft 307 kts 136°
2026-05-05 22:04 50.34214 8.41356 21096 ft 307 kts 136°
2026-05-05 22:04 50.32710 8.43727 21019 ft 307 kts 136°
2026-05-05 22:05 50.31205 8.46100 20939 ft 307 kts 136°
2026-05-05 22:05 50.29700 8.48473 20875 ft 307 kts 136°
2026-05-05 22:05 50.28195 8.50844 20795 ft 307 kts 136°
2026-05-05 22:05 50.26691 8.53213 20733 ft 307 kts 136°
2026-05-05 22:06 50.25185 8.55574 20663 ft 307 kts 137°
2026-05-05 22:06 50.23627 8.58004 20466 ft 326 kts 137°
2026-05-05 22:06 50.22012 8.60529 20114 ft 330 kts 136°
2026-05-05 22:06 50.20406 8.63084 19730 ft 330 kts 133°
2026-05-05 22:07 50.19147 8.66019 19372 ft 332 kts 117°
2026-05-05 22:07 50.18453 8.69453 19010 ft 334 kts 100°
2026-05-05 22:07 50.18404 8.73077 18655 ft 337 kts 84°
2026-05-05 22:07 50.19001 8.76612 18299 ft 338 kts 70°
2026-05-05 22:08 50.19824 8.80053 17926 ft 338 kts 71°
2026-05-05 22:08 50.20639 8.83494 17390 ft 340 kts 71°
2026-05-05 22:08 50.21460 8.86986 16760 ft 346 kts 71°
2026-05-05 22:08 50.22293 8.90544 16112 ft 351 kts 71°
2026-05-05 22:09 50.23138 8.94160 15479 ft 357 kts 70°
2026-05-05 22:09 50.23993 8.97813 14861 ft 361 kts 70°
2026-05-05 22:09 50.24859 9.01520 14251 ft 364 kts 70°
2026-05-05 22:09 50.25718 9.05203 13663 ft 367 kts 70°
2026-05-05 22:10 50.26593 9.08962 13000 ft 369 kts 70°
2026-05-05 22:10 50.27468 9.12734 12334 ft 365 kts 70°
2026-05-05 22:10 50.28316 9.16400 11694 ft 353 kts 70°
2026-05-05 22:10 50.29139 9.19965 11076 ft 343 kts 70°
2026-05-05 22:11 50.29936 9.23426 10463 ft 335 kts 70°
2026-05-05 22:11 50.30717 9.26818 9855 ft 327 kts 70°
2026-05-05 22:11 50.31359 9.30179 9208 ft 319 kts 84°
2026-05-05 22:11 50.31233 9.33568 8552 ft 309 kts 108°
2026-05-05 22:12 50.30313 9.36427 8252 ft 290 kts 132°
2026-05-05 22:12 50.28839 9.38521 8124 ft 284 kts 153°
2026-05-05 22:12 50.27038 9.39646 8006 ft 277 kts 173°
2026-05-05 22:12 50.25138 9.39640 7867 ft 272 kts 195°
2026-05-05 22:13 50.23445 9.38456 7737 ft 266 kts 219°
2026-05-05 22:13 50.22240 9.36309 7608 ft 264 kts 242°
2026-05-05 22:13 50.21565 9.33653 7478 ft 264 kts 250°
2026-05-05 22:13 50.20951 9.30955 7364 ft 264 kts 250°
2026-05-05 22:14 50.20334 9.28261 7236 ft 263 kts 250°
2026-05-05 22:14 50.19722 9.25611 7112 ft 263 kts 250°
2026-05-05 22:14 50.19104 9.22930 6998 ft 262 kts 250°
2026-05-05 22:14 50.18487 9.20255 6859 ft 262 kts 250°
2026-05-05 22:15 50.17867 9.17585 6747 ft 262 kts 250°
2026-05-05 22:15 50.17248 9.14914 6623 ft 262 kts 250°
2026-05-05 22:15 50.16629 9.12244 6499 ft 261 kts 250°
2026-05-05 22:15 50.16010 9.09586 6380 ft 261 kts 250°
2026-05-05 22:16 50.15394 9.06943 6082 ft 257 kts 249°
2026-05-05 22:16 50.14782 9.04349 5696 ft 255 kts 249°
2026-05-05 22:16 50.14164 9.01742 5332 ft 256 kts 249°
2026-05-05 22:16 50.13555 8.99141 5270 ft 257 kts 249°
2026-05-05 22:17 50.12950 8.96550 5180 ft 258 kts 249°
2026-05-05 22:17 50.12337 8.93932 5037 ft 258 kts 249°
2026-05-05 22:17 50.11729 8.91342 4744 ft 256 kts 249°
2026-05-05 22:17 50.11121 8.88748 4400 ft 255 kts 249°
2026-05-05 22:18 50.10511 8.86156 4061 ft 254 kts 249°
2026-05-05 22:18 50.09906 8.83584 3718 ft 253 kts 249°
2026-05-05 22:18 50.09302 8.81018 3389 ft 252 kts 249°
2026-05-05 22:18 50.08701 8.78470 3045 ft 250 kts 249°
2026-05-05 22:19 50.08110 8.75967 2708 ft 248 kts 249°
2026-05-05 22:19 50.07526 8.73495 2376 ft 237 kts 249°
2026-05-05 22:19 50.06973 8.71160 2067 ft 223 kts 249°
2026-05-05 22:19 50.06452 8.68958 1779 ft 212 kts 248°
2026-05-05 22:20 50.05963 8.66898 1511 ft 192 kts 249°
2026-05-05 22:20 50.05592 8.65331 1298 ft 174 kts 249°
2026-05-05 22:20 50.05255 8.63914 1105 ft 162 kts 248°
2026-05-05 22:20 50.04892 8.62387 899 ft 154 kts 248°
2026-05-05 22:21 50.04532 8.60872 692 ft 147 kts 248°
2026-05-05 22:21 50.04201 8.59480 490 ft 144 kts 248°
2026-05-05 22:21 50.03851 8.58039 371 ft 138 kts 247°
2026-05-05 22:21 50.03599 8.56975 357 ft 68 kts 250°
2026-05-05 22:22 50.03466 8.56427 353 ft 48 kts 249°
2026-05-05 22:22 50.03454 8.55923 348 ft 48 kts 281°
2026-05-05 22:22 50.03501 8.55529 350 ft 18 kts 306°
2026-05-05 22:22 50.03555 8.55513 351 ft 7 kts 17°
2026-05-05 22:23 50.03650 8.55536 348 ft 21 kts
2026-05-05 22:23 50.03809 8.55541 357 ft 18 kts 324°
2026-05-05 22:23 50.03930 8.55477 355 ft 25 kts 352°
2026-05-05 22:23 50.04071 8.55407 358 ft 23 kts 339°
2026-05-05 22:24 50.04130 8.55489 357 ft 15 kts 64°
2026-05-05 22:24 50.04138 8.55603 359 ft 7 kts 143°
2026-05-05 22:24 50.04081 8.55636 360 ft 1 kts 159°
2026-05-05 22:24 50.04067 8.55644 353 ft 5 kts 159°
2026-05-05 22:25 50.04065 8.55645 358 ft 0 kts 159°